Showing default

STPSAT-7, 68630

Orbit data source: Space-Track

STPSAT-7, 68630 is a payload satellite owned by USAF STP (US) in LEO that was launched on Tue, 07 Apr 2026 UTC via an MINOTAUR IV launch vehicle from the Air Force Western Test Range (AFWTR). Payload-class satellites include a variety of spacecraft equipped with specific instruments for various scientific and technological missions. These include communications satellites like Starlink; space stations such as the ISS; scientific satellites like the Hubble; Earth observation satellites from companies like Planet Labs, Umbra, and HawkEye 360; GPS; miniature CubeSats for education and research; and military/defense satellites.

Loading next visibility...
Identifier
68630, 2026-074D
Orbit
LEO
Country
Flag of USUS
Related business
Manufacturer
Aegis Aerospace
Mission
Operational spacecraft
Bus & Motor
STPSAT7, AOCS
Mass
~100 kg wet, ~100 kg dry
Launch date (UTC)
2026-04-07 (1 month ago)
Launch vehicle
MINOTAUR IV
Launch site
Air Force Western Test Range (AFWTR)
Object type
Payload
Rocket body
Debris
Shape & HBR
Unknown shape, 14.5 m
Radar Cross Section
RCS unknown

Expand to show TLE details & history
Last TLE update: 12 hours ago

TLE from 12 hours ago
0 STPSAT-7
1 68630U 26074D   26140.42439993  .00003007  00000-0  13273-3 0  9997
2 68630  60.0218 284.6789 0022629   3.4553 356.6680 15.24351184  6540
Epoch: 2026-05-20T10:11Z
TLE epoch observation values (Epoch: 2026-05-20T10:11:08.153Z)
Latitude
-0.00001°
Longitude
-106.18923°
Altitude
478.813 km
Speed
7.636 km/s
True Right ascension
18h 58m 42s
True Declination
0° 00' 00"
Sunlit
Object was in full shadow at epoch
Visualization orbit readout
Latitude
Unknown
Longitude
Unknown
Altitude
Unknown
Speed
Unknown
Apparent Right ascension
Unknown
Apparent Declination
Unknown
Sunlit
N/A
Visualization observer readout
Local Sidereal Time
07:16:53
Azimuth
Unknown
Elevation
Unknown
Doppler factor
Unknown
Orbital elements
Apogee altitude
507.481 km
Perigee altitude
476.388 km
Semi-major axis
6,870.071 km
Eccentricity
0.00226
Inclination
60.0218°
RAAN
284.6789°
Arg. of periapsis
3.4553°
True anomaly
356.65289°
Mean anomaly
356.668°
Eccentric anomaly
356.66045°
Mean motion
3.81155 °/min
Orbital period
94.45 mins
BSTAR
0.00013273
Loading maneuver chart data...
Computing Atmospheric mass density...
Loading historical data...
Loading historical data...
Loading historical data...
Loading historical data...
Loading historical data...
Loading historical data...
Loading historical data...

Documentation

Showing up to 5 results
|